Regional Weather Roundup
Issued by NWS

Home | Current Version | Previous Version | Graphics & Text | Print | Product List | Glossary On
Versions: 1 2 3 4 5 6 7 8 9 10 11 12 13 14 15 16 17 18 19 20 21 22 23 24 25 26 27 28 29 30 31 32 33 34 35 36 37 38 39 40 41 42 43 44 45 46 47 48 49 50
000
ASUS43 KTOP 191959
RWRKS

WEATHER ROUNDUP FOR KANSAS
NATIONAL WEATHER SERVICE GOODLAND KS
200 PM CST THU JAN 19 2017

NOTE:  "FAIR" INDICATES FEW OR NO CLOUDS BELOW 12,000 FEET WITH NO
SIGNIFICANT WEATHER AND/OR OBSTRUCTIONS TO VISIBILITY.

KSZ001>006-013>018-027>032-041>047-192100-
NORTHWEST KANSAS

CITY           SKY/WX    TMP DP  RH WIND       PRES   REMARKS
GOODLAND       SUNNY     38  34  85 CALM      29.54F
HAYS           CLOUDY    46  43  89 SE10      29.59F
HILL CITY      CLOUDY    46  41  82 S7        29.58F
RUSSELL        CLOUDY    46  43  89 SE8       29.58F
$$

KSZ061>065-074>080-084>089-192100-
SOUTHWEST KANSAS

CITY           SKY/WX    TMP DP  RH WIND       PRES   REMARKS
DODGE CITY     CLOUDY    44  37  76 SW3       29.56F
ELKHART          N/A     50  28  42 NW9         N/A
GARDEN CITY    CLOUDY    42  37  82 CALM      29.55F
GREAT BEND     CLOUDY    46  43  89 S12       29.58F
LIBERAL        CLOUDY    39  36  87 NW10      29.56F WCI  32
$$

KSZ066>073-081>083-090>101-192100-
SOUTHEAST KANSAS

CITY           SKY/WX    TMP DP  RH WIND       PRES   REMARKS
CHANUTE        CLOUDY    49  46  90 SE8       29.67F
COFFEYVILLE    CLOUDY    51  47  86 S15       29.67F
HUTCHINSON     CLOUDY    47  45  93 SE9       29.59F FOG
MEDICINE LODGE   N/A     47  42  83 S8        29.56F
PARSONS        CLOUDY    51  47  86 S7        29.68F
WICHITA INTL   CLOUDY    51  45  79 SE10      29.59F
WICHITA JABRA  CLOUDY    48  45  89 SE10      29.60F
WINFIELD       CLOUDY    53  45  74 SE10      29.60F
$$

KSZ007>012-019>026-033>040-048>060-102>105-192100-
NORTHEAST KANSAS

CITY           SKY/WX    TMP DP  RH WIND       PRES   REMARKS
CONCORDIA      CLOUDY    44  44 100 SE12      29.63F FOG
EMPORIA        CLOUDY    45  45 100 S13       29.65F FOG
LAWRENCE       CLOUDY    47  46  97 SE12      29.69F FOG
MANHATTAN      CLOUDY    47  44  90 E7        29.64F
OLATHE IND     CLOUDY    47  45  93 S7        29.69F FOG
OLATHE EXE     FOG       45  45 100 SE7       29.69F VSB 3/4
SALINA         CLOUDY    48  43  82 SE13      29.66S HAZE
TOPEKA BILLARD CLOUDY    48  44  86 SE9       29.67F
TOPEKA FORBES  CLOUDY    48  45  89 SE9       29.67F
$$




USA.gov is the U.S. government's official web portal to all federal, state and local government web resources and services.